World > North America > United States > Illinois   City of Marion, IL

Marion, Illinois Regional Weather

Lat: 37.73N, Lon: 88.94W
Wx Zone: ILZ085
Feedback

Marion, IL Regional Weather

Expires:202002181700;;731285
ASUS43 KLOT 181608
RWRIL 

ILLINOIS REGIONAL WEATHER ROUNDUP
NATIONAL WEATHER SERVICE CHICAGO/ROMEOVILLE IL
1000 AM CST TUE FEB 18 2020

NOTE: "FAIR" INDICATES FEW OR NO CLOUDS BELOW 12,000 FEET WITH NO
SIGNIFICANT WEATHER AND/OR OBSTRUCTIONS TO VISIBILITY.

* THESE STATIONS ARE NOT UNDER NWS QUALITY CONTROL. THEY ALSO MAY NOT
  REPORT WEATHER SUCH AS PRECIPITATION OR FOG.


ILZ064>066-069>071-074>076-080>082-084>086-088>090-092>094-181700-
SOUTH-CENTRAL ILLINOIS
  
CITY           SKY/WX    TMP DP  RH WIND       PRES   REMARKS
CARBONDALE     CLOUDY    40  34  79 N16       30.20S                  
CAIRO*         CLOUDY    44  40  87 N16       30.16R                  
EFFINGHAM*     CLOUDY    36  13  39 NW13      30.21R WCI  28          
MARION         CLOUDY    39  32  75 N12       30.20R WCI  32          
MT. VERNON     PTSUNNY   38  32  79 VRB5      30.19F WCI  34          
CENTRALIA*     CLOUDY    38  35  88 N10       30.19F WCI  31          
SALEM*         CLOUDY    38  33  84 N10       30.19F WCI  31          
METROPOLIS*    CLOUDY    45  40  85 N10G20    30.15R                  
$$


SKY/WX - Weather  TMP - Temperature  DP - Dew Point  RH - Relative Humidity
WIND - Wind Direction/Speed PRES - Barometric Pressure VSB - Visibility
WCI - Wind Chill Index E13G22 Wind - East Wind 13 mph/Gusts of 22 mph
Illinois Weather Map
What is UTC time?